Terminal Aerodrome Forecast
Issued by NWS

Home | Current Version | Previous Version | Text Only | Print | Product List | Glossary On
Versions: 1 2 3 4 5 6 7 8 9 10 11 12 13 14 15 16
787
FTUS41 KPBZ 242326
TAFMGW
TAF
KMGW 242326Z 2500/2524 VRB03KT P6SM FEW025
     FM250600 02002KT 2SM BR SKC
     FM251200 02002KT P6SM SKC=

USA.gov is the U.S. government's official web portal to all federal, state and local government web resources and services.